User: anonymous   Login
Location: Voyageurs National Park
(48.5020°N, 92.9292°W)
Time: 06:05:51
(UTC-05:00)
Language:

Terra - Orbit

View from above orbital plane
View from above orbital plane
View from above satellite
View from above satellite

Ground track
Ground track

The orbit data is extracted from the following two-line orbital elements,

1 25994U 99068A   18175.12001948  .00000042  00000-0  19379-4 0  9997
2 25994  98.2042 249.8887 0001266  73.8846 286.2517 14.57108698984835
Epoch (UTC): 24 June 2018 02:52:49
Eccentricity: 0.0001266
inclination: 98.2042°
perigee height: 701 km
apogee height: 703 km
right ascension of ascending node: 249.8887°
argument of perigee: 73.8846°
revolutions per day: 14.57108698
mean anomaly at epoch: 286.2517°
orbit number at epoch: 98483

The dashed part of the orbit path shows where the satellite is in the earth's shadow,  

DLR